Regional Weather Roundup
Issued by NWS

Home | Current Version | Previous Version | Text Only | Print | Product List | Glossary Off
Versions: 1 2 3 4 5 6 7 8 9 10 11 12 13 14 15 16 17 18 19 20 21 22 23 24 25 26 27 28 29 30 31 32 33 34 35 36 37 38 39 40 41 42 43 44 45 46 47 48 49 50

000
ASUS44 KMEG 200400
RWRTN
TENNESSEE HOURLY STATE WEATHER ROUNDUP
NATIONAL WEATHER SERVICE MEMPHIS TN
1000 PM CST THU JAN 19 2017

TNZ002-004-019-021-049-052-054-088>092-200500-
WEST TENNESSEE

CITY           SKY/WX    TMP DP  RH WIND       PRES   REMARKS
MEMPHIS INTL   CLOUDY    57  57 100 SW5       29.72F
NWS MEMPHIS      N/A     58 N/A N/A MISG        N/A
JACKSON        CLOUDY    55  55 100 S6        29.70F FOG
DYERSBURG      CLOUDY    57  54  88 W3        29.70S
UNION CITY     MOCLDY   N/A N/A N/A CALM      29.69R
PARIS          CLOUDY    55  55 100 SW8       29.70R
$$

TNZ008-025-027-028-033-062-065-066-200500-
NORTH MIDDLE TENNESSEE

CITY           SKY/WX    TMP DP  RH WIND       PRES   REMARKS
NASHVILLE      LGT RAIN  59  57  93 SW5       29.71S
CLARKSVILLE    RAIN      55  54  96 CALM      29.70S VSB 1
SMYRNA         LGT RAIN  58  57  97 SW3       29.73R
CROSSVILLE     LGT RAIN  51  50  96 S9        29.80F
$$

TNZ061-075-076-078-094-096-097-200500-
SOUTH MIDDLE TENNESSEE

CITY           SKY/WX    TMP DP  RH WIND       PRES   REMARKS
TULLAHOMA      MOCLDY    59  57  94 S9        29.74F
WINCHESTER     MOCLDY    61  57  88 S9        29.75F
MCMINNVILLE    CLOUDY    57  57 100 VRB3      29.73F
COLUMBIA       CLOUDY   N/A N/A N/A S5        29.71F
SHELBYVILLE    CLOUDY    61  61 100 W8        29.74R
$$

TNZ017-018-042-046-047-200500-
NORTHEAST TENNESSEE

CITY           SKY/WX    TMP DP  RH WIND       PRES   REMARKS
TRI CITIES     CLOUDY    52  42  69 CALM      29.87F
$$

TNZ012-013-036-069-073-074-200500-
CENTRAL EAST TENNESSEE

CITY           SKY/WX    TMP DP  RH WIND       PRES   REMARKS
KNOXVILLE      NOT AVBL
OAK RIDGE      CLOUDY    52  47  83 CALM      29.84S
GATLINBURG     CLEAR     50  46  87 CALM      29.81F
$$

TNZ083-085-099-200500-
SOUTHEAST TENNESSEE

CITY           SKY/WX    TMP DP  RH WIND       PRES   REMARKS
CHATTANOOGA    RAIN      53  51  93 SE5       29.84S FOG
$$

SKY/WX REPORTED AS FAIR MEANS FEW OR NO CLOUDS BELOW
12 THOUSAND FEET.





USA.gov is the U.S. government's official web portal to all federal, state and local government web resources and services.